Powrót do katalogu

NAVSTAR 58

USA 190

AktywnyNawigacjaHEO
NORAD 29486·PAYLOAD·🇺🇸 United States

Wystrzelony Sep 25, 2006 z Cape Canaveral Space Force Station

Loading…

Następne Przeloty (najbliższe 24 godziny)

TLE

ŚwieżeSource: CelesTrak SupGP

Epoka: Sep 16, 2026, 16:44 UTC

1 29486C 06042A   26259.69756944  .00000000  00000+0  00000+0 0  2592
2 29486  54.7168 147.7046 0108957  57.2355 279.4772  2.00565340    12

Śledź NAVSTAR 58 w czasie rzeczywistym z AllMySat

Download on the App Store